| time (UTC) | temp F | wind direction | speed knots | gust knots | rain 1hr in | rain 24hr in | rain mn in | humidity % | barometer mb |
| 20260904221528 | 93 | 210 | 0.0 | 1.7 | 0.00 | 0.00 | 0.00 | 66 | 1010.5 |
| 20260904220027 | 93 | 235 | 0.9 | 3.5 | 0.00 | 0.00 | 0.00 | 66 | 1010.5 |
| 20260904214527 | 95 | 209 | 1.7 | 4.3 | 0.00 | 0.00 | 0.00 | 63 | 1010.5 |
| 20260904213029 | 97 | 207 | 0.0 | 1.7 | 0.00 | 0.00 | 0.00 | 63 | 1010.5 |
| 20260904211523 | 95 | 220 | 0.9 | 3.5 | 0.00 | 0.00 | 0.00 | 63 | 1010.5 |
| 20260904210026 | 97 | 176 | 0.0 | 0.9 | 0.00 | 0.00 | 0.00 | 64 | 1010.3 |
| 20260904204515 | 95 | 122 | 0.0 | 0.0 | 0.00 | 0.00 | 0.00 | 66 | 1010.4 |
| 20260904203013 | 94 | 94 | 0.0 | 0.0 | 0.00 | 0.00 | 0.00 | 67 | 1010.4 |
| 20260904201512 | 93 | 81 | 0.9 | 3.5 | 0.00 | 0.00 | 0.00 | 68 | 1010.5 |
| 20260904200009 | 95 | 122 | 0.0 | 0.0 | 0.00 | 0.00 | 0.00 | 66 | 1010.5 |
| 20260904194503 | 95 | 155 | 0.0 | 0.9 | 0.00 | 0.00 | 0.00 | 66 | 1010.4 |
| 20260904193100 | 94 | 86 | 0.0 | 3.5 | 0.00 | 0.00 | 0.00 | 68 | 1010.4 |
| 20260904191554 | 94 | 194 | 0.0 | 2.6 | 0.00 | 0.00 | 0.00 | 66 | 1010.5 |
| 20260904190049 | 92 | 94 | 0.0 | 1.7 | 0.00 | 0.00 | 0.00 | 68 | 1010.5 |
| 20260904184549 | 92 | 86 | 0.9 | 2.6 | 0.00 | 0.00 | 0.00 | 67 | 1010.7 |
| 20260904183042 | 92 | 145 | 0.0 | 2.6 | 0.00 | 0.00 | 0.00 | 70 | 1010.6 |
| 20260904181545 | 90 | 76 | 0.0 | 3.5 | 0.00 | 0.00 | 0.00 | 72 | 1010.6 |
| 20260904180038 | 90 | 1 | 0.0 | 4.3 | 0.00 | 0.00 | 0.00 | 71 | 1010.7 |
| 20260904174534 | 91 | 75 | 0.0 | 2.6 | 0.00 | 0.00 | 0.00 | 69 | 1010.7 |
| 20260904173029 | 89 | 34 | 0.0 | 3.5 | 0.00 | 0.00 | 0.00 | 74 | 1010.6 |
| 20260904171529 | 87 | 32 | 0.0 | 2.6 | 0.00 | 0.00 | 0.00 | 76 | 1010.6 |
| 20260904170022 | 87 | 25 | 0.9 | 4.3 | 0.00 | 0.00 | 0.00 | 73 | 1010.6 |
| 20260904164520 | 86 | 39 | 0.0 | 4.3 | 0.00 | 0.00 | 0.00 | 73 | 1010.6 |
| 20260904163018 | 86 | 23 | 0.9 | 3.5 | 0.00 | 0.00 | 0.00 | 75 | 1010.6 |
| 20260904161514 | 84 | 259 | 0.0 | 0.0 | 0.00 | 0.00 | 0.00 | 77 | 1010.6 |
| 20260904160012 | 83 | 260 | 0.0 | 1.7 | 0.00 | 0.00 | 0.00 | 79 | 1010.7 |
| 20260904154508 | 82 | 258 | 0.9 | 2.6 | 0.00 | 0.00 | 0.00 | 80 | 1010.6 |
| 20260904153006 | 82 | 242 | 0.9 | 3.5 | 0.00 | 0.00 | 0.00 | 82 | 1010.5 |
| 20260904151503 | 81 | 250 | 0.9 | 3.5 | 0.00 | 0.00 | 0.00 | 81 | 1010.5 |
| 20260904150003 | 80 | 204 | 0.9 | 3.5 | 0.00 | 0.00 | 0.00 | 83 | 1010.5 |
| 20260904144558 | 80 | 231 | 1.7 | 3.5 | 0.00 | 0.00 | 0.00 | 83 | 1010.5 |
| 20260904143055 | 79 | 217 | 1.7 | 5.2 | 0.00 | 0.00 | 0.00 | 85 | 1010.4 |
| 20260904141552 | 78 | 223 | 1.7 | 4.3 | 0.00 | 0.00 | 0.00 | 87 | 1010.3 |
| 20260904140049 | 77 | 210 | 0.0 | 3.5 | 0.00 | 0.00 | 0.00 | 88 | 1010.2 |
| 20260904134548 | 76 | 216 | 0.9 | 3.5 | 0.00 | 0.08 | 0.00 | 88 | 1010.3 |
| 20260904133044 | 76 | 181 | 0.0 | 4.3 | 0.00 | 0.08 | 0.00 | 90 | 1010.5 |
| 20260904131556 | 75 | 195 | 0.0 | 0.0 | 0.00 | 0.08 | 0.00 | 89 | 1010.6 |
| 20260904130041 | 74 | 195 | 0.0 | 0.0 | 0.00 | 0.08 | 0.00 | 90 | 1010.7 |
| 20260904124540 | 73 | 194 | 0.0 | 2.6 | 0.00 | 0.08 | 0.00 | 89 | 1010.5 |
| 20260904123037 | 73 | 207 | 0.9 | 2.6 | 0.00 | 0.08 | 0.00 | 90 | 1010.2 |
| 20260904121537 | 73 | 221 | 0.9 | 2.6 | 0.00 | 0.08 | 0.00 | 90 | 1010.0 |
| 20260904120043 | 73 | 195 | 0.9 | 2.6 | 0.00 | 0.08 | 0.00 | 90 | 1010.0 |
| 20260904114533 | 73 | 186 | 2.6 | 4.3 | 0.00 | 0.16 | 0.00 | 91 | 1009.9 |
| 20260904113033 | 73 | 203 | 0.0 | 2.6 | 0.00 | 0.16 | 0.00 | 91 | 1009.7 |
| 20260904111540 | 73 | 203 | 0.9 | 3.5 | 0.00 | 0.16 | 0.00 | 90 | 1009.6 |
| 20260904110028 | 73 | 198 | 1.7 | 4.3 | 0.00 | 0.16 | 0.00 | 91 | 1009.5 |
| 20260904104527 | 73 | 195 | 1.7 | 2.6 | 0.00 | 0.17 | 0.00 | 91 | 1009.4 |
| 20260904103033 | 73 | 205 | 0.0 | 2.6 | 0.00 | 0.17 | 0.00 | 91 | 1009.5 |
| 20260904101525 | 73 | 200 | 0.9 | 2.6 | 0.00 | 0.17 | 0.00 | 91 | 1009.3 |
| 20260904100024 | 73 | 202 | 1.7 | 3.5 | 0.00 | 0.17 | 0.00 | 91 | 1009.3 |
| 20260904094523 | 73 | 207 | 0.0 | 1.7 | 0.00 | 0.18 | 0.00 | 91 | 1009.4 |
| 20260904093022 | 74 | 206 | 0.9 | 3.5 | 0.00 | 0.18 | 0.00 | 91 | 1009.2 |
| 20260904091622 | 74 | 213 | 1.7 | 4.3 | 0.00 | 0.18 | 0.00 | 91 | 1009.1 |
| 20260904090019 | 74 | 197 | 1.7 | 5.2 | 0.00 | 0.18 | 0.00 | 91 | 1009.1 |
| 20260904084518 | 74 | 195 | 1.7 | 5.2 | 0.00 | 0.25 | 0.00 | 91 | 1009.0 |
| 20260904083017 | 74 | 203 | 2.6 | 5.2 | 0.00 | 0.25 | 0.00 | 91 | 1009.0 |
| 20260904081516 | 74 | 209 | 1.7 | 4.3 | 0.00 | 0.25 | 0.00 | 91 | 1009.0 |
| 20260904080015 | 74 | 170 | 2.6 | 5.2 | 0.00 | 0.25 | 0.00 | 91 | 1009.0 |
| 20260904074531 | 74 | 191 | 2.6 | 5.2 | 0.00 | 0.25 | 0.00 | 92 | 1009.1 |
| 20260904073020 | 74 | 202 | 1.7 | 3.5 | 0.00 | 0.25 | 0.00 | 92 | 1009.1 |
| 20260904071513 | 74 | 211 | 1.7 | 2.6 | 0.00 | 0.25 | 0.00 | 94 | 1009.1 |
| 20260904070012 | 74 | 184 | 0.0 | 1.7 | 0.00 | 0.25 | 0.00 | 94 | 1009.2 |
| 20260904064516 | 74 | 185 | 0.9 | 2.6 | 0.00 | 0.25 | 0.00 | 94 | 1009.3 |
| 20260904063009 | 74 | 186 | 0.9 | 2.6 | 0.00 | 0.25 | 0.00 | 95 | 1009.4 |
| 20260904061508 | 74 | 177 | 0.0 | 0.0 | 0.00 | 0.25 | 0.00 | 94 | 1009.4 |
| 20260904060010 | 74 | 178 | 0.0 | 0.0 | 0.00 | 0.25 | 0.00 | 95 | 1009.4 |
| 20260904054511 | 74 | 179 | 0.0 | 1.7 | 0.00 | 0.25 | 0.00 | 95 | 1009.3 |
| 20260904053006 | 74 | 179 | 0.9 | 1.7 | 0.00 | 0.25 | 0.00 | 95 | 1009.2 |
| 20260904051501 | 75 | 178 | 0.9 | 1.7 | 0.00 | 0.25 | 0.00 | 94 | 1009.0 |
| 20260904050100 | 75 | 181 | 0.0 | 0.0 | 0.00 | 0.25 | 0.00 | 94 | 1009.0 |
| 20260904044608 | 75 | 179 | 0.0 | 0.0 | 0.00 | 0.25 | 0.25 | 93 | 1009.0 |
| 20260904043101 | 76 | 173 | 0.0 | 0.0 | 0.00 | 0.25 | 0.25 | 93 | 1009.1 |
| 20260904041603 | 76 | 173 | 0.0 | 0.0 | 0.00 | 0.25 | 0.25 | 93 | 1009.2 |
| 20260904040108 | 76 | 176 | 0.0 | 0.0 | 0.00 | 0.25 | 0.25 | 92 | 1009.1 |
| 20260904034607 | 76 | 176 | 0.0 | 0.0 | 0.00 | 0.25 | 0.25 | 92 | 1009.1 |
| 20260904033101 | 77 | 178 | 0.0 | 0.0 | 0.00 | 0.25 | 0.25 | 91 | 1009.2 |
| 20260904031556 | 77 | 178 | 0.0 | 0.0 | 0.00 | 0.25 | 0.25 | 91 | 1009.2 |
| 20260904030055 | 77 | 179 | 0.0 | 0.0 | 0.00 | 0.25 | 0.25 | 90 | 1009.1 |
| 20260904024555 | 77 | 179 | 0.0 | 0.0 | 0.00 | 0.25 | 0.25 | 90 | 1009.2 |
| 20260904023055 | 78 | 179 | 0.0 | 0.0 | 0.00 | 0.25 | 0.25 | 89 | 1009.1 |
| 20260904021603 | 78 | 179 | 0.0 | 0.0 | 0.00 | 0.25 | 0.25 | 89 | 1009.0 |
| 20260904020053 | 78 | 181 | 0.0 | 1.7 | 0.00 | 0.25 | 0.25 | 89 | 1008.7 |
| 20260904014628 | 79 | 182 | 0.9 | 4.3 | 0.00 | 0.25 | 0.25 | 89 | 1008.5 |
| 20260904013053 | 80 | 172 | 0.0 | 1.7 | 0.00 | 0.25 | 0.25 | 87 | 1008.3 |
| 20260904011556 | 80 | 186 | 0.0 | 1.7 | 0.00 | 0.25 | 0.25 | 86 | 1008.2 |
| 20260904010100 | 81 | 186 | 0.0 | 0.9 | 0.00 | 0.25 | 0.25 | 85 | 1008.3 |
| 20260904004554 | 81 | 186 | 0.0 | 0.9 | 0.00 | 0.25 | 0.25 | 85 | 1008.2 |
| 20260904003059 | 81 | 188 | 0.0 | 0.9 | 0.00 | 0.25 | 0.25 | 84 | 1008.3 |
| 20260904001550 | 82 | 177 | 0.0 | 0.9 | 0.00 | 0.25 | 0.25 | 83 | 1008.1 |
| 20260904000048 | 82 | 172 | 0.0 | 0.9 | 0.00 | 0.25 | 0.25 | 82 | 1008.0 |
| 20260903234547 | 82 | 188 | 0.0 | 3.5 | 0.00 | 0.25 | 0.25 | 82 | 1008.0 |
| 20260903233101 | 82 | 186 | 1.7 | 4.3 | 0.00 | 0.25 | 0.25 | 81 | 1008.0 |
| 20260903231547 | 82 | 200 | 1.7 | 5.2 | 0.00 | 0.25 | 0.25 | 79 | 1008.0 |
| 20260903230052 | 83 | 217 | 2.6 | 6.1 | 0.00 | 0.25 | 0.25 | 77 | 1007.7 |
| 20260903224545 | 85 | 164 | 3.5 | 9.6 | 0.00 | 0.25 | 0.25 | 73 | 1007.3 |
| 20260903223053 | 85 | 226 | 6.1 | 10.4 | 0.00 | 0.25 | 0.25 | 71 | 1007.4 |